Overview Statistics Trail Chart Weather Telemetry Raw packets
 

This is the latest recevied weather packets stored in our database for station/object 4S6DRJ-13. If no packets are shown the sender has not sent any weather packets the latest 10 day(s).

<< 471 472 473 474 475 476 477 >>
Time Temp. Humidity Pressure Rain* Wind** Luminosity Snow
1787735923 29.44° C 75% 1008.6 hPa 0 mm 1.79 m/s, 245° 425 W/m² -
1787735862 30° C 74% 1008.6 hPa 0 mm 2.24 m/s, 248° 410 W/m² -
1787735801 30° C 74% 1008.6 hPa 0 mm 3.13 m/s, 258° 442 W/m² -
1787735740 30° C 74% 1008.5 hPa 0 mm 1.79 m/s, 202° 416 W/m² -
1787735679 30° C 73% 1008.5 hPa 0 mm 2.68 m/s, 240° 422 W/m² -
1787735618 30° C 73% 1008.4 hPa 0 mm 3.13 m/s, 2° 406 W/m² -
1787735557 30° C 74% 1008.6 hPa 0 mm 2.24 m/s, 199° 455 W/m² -
1787735496 30° C 75% 1008.7 hPa 0 mm 0.45 m/s, 82° 550 W/m² -
1787735435 30° C 74% 1008.5 hPa 0 mm 1.34 m/s, 241° 559 W/m² -
1787735374 30° C 74% 1008.7 hPa 0 mm 1.34 m/s, 178° 534 W/m² -
1787735313 30° C 74% 1008.6 hPa 0 mm 1.79 m/s, 310° 575 W/m² -
1787735252 30° C 74% 1008.6 hPa 0 mm 2.24 m/s, 225° 619 W/m² -
1787735191 30° C 73% 1008.6 hPa 0 mm 2.24 m/s, 240° 614 W/m² -
1787735130 30° C 73% 1008.6 hPa 0 mm 2.24 m/s, 290° 588 W/m² -
1787735069 30.56° C 73% 1008.6 hPa 0 mm 1.34 m/s, 247° 627 W/m² -
1787735008 30.56° C 73% 1008.5 hPa 0 mm 3.13 m/s, 234° 486 W/m² -
1787734948 30.56° C 73% 1008.5 hPa 0 mm 2.24 m/s, 227° 563 W/m² -
1787734886 30° C 74% 1008.6 hPa 0 mm 2.24 m/s, 181° 624 W/m² -
1787734825 30° C 74% 1008.7 hPa 0 mm 1.34 m/s, 271° 685 W/m² -
1787734764 30° C 74% 1008.8 hPa 0 mm 0.45 m/s, 112° 537 W/m² -
1787734703 30° C 75% 1008.7 hPa 0 mm 0.89 m/s, 308° 505 W/m² -
1787734642 30° C 74% 1008.8 hPa 0 mm 0.89 m/s, 294° 603 W/m² -
1787734581 30° C 74% 1008.6 hPa 0 mm 2.24 m/s, 226° 647 W/m² -
1787734520 30° C 73% 1008.6 hPa 0 mm 2.24 m/s, 258° 643 W/m² -
1787734459 30° C 74% 1008.8 hPa 0 mm 0.89 m/s, 234° 585 W/m² -

* Rain latest hour (hover to see other rain measurements)
** Current wind speed in m/s (hover to see current wind gust speed)